Tracking 18957 objects as of 21-Jan-2018
HD Live streaming from Space Station
objects crossing your sky now

NOAA 4


10-day predictions
NOAA 4 is classified as:


NORAD ID: 7529
Int'l Code: 1974-089A
Perigee: 1,451.6 km
Apogee: 1,465.6 km
Inclination: 101.7 °
Period: 114.9 minutes
Semi major axis: 7829 km
RCS: 3.1879 m2 (large)
Launch date: November 15, 1974
Source: United States (US)
Launch site: AIR FORCE WESTERN TEST RANGE (AFWTR)
aabbcc
Your satellite tracking list
Your tracking list is empty




NASA's NSSDC Master Catalog

Two Line Element Set (TLE):
1  7529U 74089A   18020.86530935 -.00000036 +00000-0 +52476-4 0  9999
2  7529 101.6754 350.6332 0008927 320.8359 067.2709 12.53118192975068
Source of the keplerian elements: AFSPC